sat.trackr.live / text

‹ back to catalog

STARLINK-30613

NORAD 58077 · 2023-160C

PAYLOAD ACTIVE UNKNOWN

§ Identity

Operator
Country
US
Launch date
2023-10-18
Launch site
AFETR
Launch vehicle
Mass (kg)
RCS (m²)

Purposes: comms

External: N2YO · Heavens-Above · Gunter

§ Orbital elements

Epoch: 2026-05-24T23:24:03.511296Z

Period
94.27 min
Inclination
43.0028°
Eccentricity
0.0001329
Mean motion
15.27606179 rev/d
Perigee alt
482.1 km
Apogee alt
483.9 km
Semi-major
6,861.1 km
B*
-1.2566e-4
RAAN
6.9901°
Arg perigee
267.2772°
Mean anomaly
92.7927°
Rev number
14,462

§ Raw data

STARLINK-306131 58077U 23160C   26144.97504064 -.00003721  00000+0 -12566-3 0  99982 58077  43.0028   6.9901 0001329 267.2772  92.7927 15.27606179144626

JSON: /api/v1/satellites/58077 · /tle

For live sub-satellite position, see the globe view (requires WebGL).

§ Visibility from observer

Set your observer location to see the next 7 days of passes ≥ 10°. The values pass through the URL so the page stays shareable.

No JS? Fill the form by hand. The geolocation button needs JavaScript.